Ellensburg, WA

4:19 PM PDT on April 26, 2018 (GMT -0700)
Bowers

Weather History for KELN - May, 2013

Change the Weather History Date:

Saturday, May 11, 2013

  Actual Average (KYKM) Record (KYKM)
Temperature  
Mean Temperature 71 °F -  
Max Temperature 89 °F 72 °F 98 °F (1949)
Min Temperature 54 °F 41 °F 27 °F (1970)
Cooling Degree Days 6    
Growing Degree Days 21 (Base 50)    
Moisture  
Dew Point 48 °F    
Average Humidity 46    
Maximum Humidity 69    
Minimum Humidity 22    
Precipitation  
Precipitation 0.00 in - - ()
Sea Level Pressure  
Sea Level Pressure 30.04 in    
Wind  
Wind Speed 8 mph (North)    
Max Wind Speed 13 mph    
Max Gust Speed -    
Visibility 10 miles    
Events      
Averages and records for this station are not official NWS values.
T = Trace of Precipitation, MM = Missing Value Source: NWS Daily Summary

Daily Weather History Graph

Daily Weather History Graph

Search for Another Location

Airport or City:

Astronomy

May. 11, 2013 Rise Set
Actual Time 5:31 AM PDT 8:26 PM PDT
Civil Twilight 4:55 AM PDT 9:02 PM PDT
Nautical Twilight 4:10 AM PDT 9:47 PM PDT
Astronomical Twilight 3:16 AM PDT 10:42 PM PDT
Moon 6:41 AM PDT (5/11) 10:13 PM PDT (5/11)
Length of Visible Light 16h 06m
Length of Day
14h 55m
Waxing Crescent, 3% of the Moon is Illuminated
May 11
Waxing Crescent
May 17
First Quarter
May 24
Full
May 31
Last Quarter
Jun 8
New

Hourly Weather History & Observations

Time (PDT) Temp. Heat Index Dew Point Humidity Pressure Visibility Wind Dir Wind Speed Gust Speed Precip Events Conditions
12:53 AM 64.9 °F - 44.1 °F 47% 30.09 in 10.0 mi NNW 12.7 mph - N/A   Clear
1:53 AM 64.0 °F - 43.0 °F 46% 30.10 in 10.0 mi NW 12.7 mph - N/A   Clear
2:53 AM 61.0 °F - 42.1 °F 50% 30.10 in 10.0 mi NW 9.2 mph - N/A   Clear
3:53 AM 57.0 °F - 43.0 °F 59% 30.10 in 10.0 mi Calm Calm - N/A   Clear
4:53 AM 54.0 °F - 44.1 °F 69% 30.10 in 10.0 mi East 6.9 mph - N/A   Clear
5:53 AM 62.1 °F - 42.1 °F 48% 30.09 in 10.0 mi WNW 8.1 mph - N/A   Clear
6:53 AM 57.9 °F - 46.9 °F 67% 30.10 in 10.0 mi East 5.8 mph - N/A   Clear
7:53 AM 61.0 °F - 46.9 °F 60% 30.10 in 10.0 mi ENE 3.5 mph - N/A   Clear
8:53 AM 63.0 °F - 48.9 °F 60% 30.11 in 10.0 mi East 4.6 mph - N/A   Clear
9:53 AM 66.0 °F - 48.9 °F 54% 30.12 in 10.0 mi Calm Calm - N/A   Clear
10:53 AM 75.0 °F - 48.0 °F 38% 30.09 in 10.0 mi Calm Calm - N/A   Clear
11:53 AM 81.0 °F - 48.9 °F 33% 30.06 in 10.0 mi WNW 9.2 mph - N/A   Clear
12:53 PM 86.0 °F - 44.1 °F 23% 30.04 in 10.0 mi NNW 3.5 mph - N/A   Clear
1:53 PM 84.9 °F - 48.0 °F 28% 30.04 in 10.0 mi SE 4.6 mph - N/A   Clear
2:53 PM 88.0 °F - 46.9 °F 24% 30.02 in 10.0 mi East 6.9 mph - N/A   Clear
3:53 PM 86.0 °F - 45.0 °F 24% 30.00 in 10.0 mi East 3.5 mph - N/A   Clear
4:53 PM 87.1 °F - 44.1 °F 22% 29.99 in 10.0 mi NE 3.5 mph - N/A   Clear
5:53 PM 80.1 °F 80.2 °F 55.9 °F 43% 29.98 in 10.0 mi NW 6.9 mph - N/A   Clear
6:53 PM 78.1 °F - 57.9 °F 50% 29.97 in 10.0 mi NW 5.8 mph - N/A   Clear
7:53 PM 73.0 °F - 55.0 °F 53% 29.96 in 10.0 mi NW 9.2 mph - N/A   Clear
8:53 PM 73.0 °F - 53.1 °F 49% 29.97 in 10.0 mi NW 10.4 mph - N/A   Clear
9:53 PM 73.0 °F - 51.1 °F 46% 29.96 in 10.0 mi NW 11.5 mph - N/A   Clear
10:53 PM 71.1 °F - 50.0 °F 47% 29.97 in 10.0 mi NNW 8.1 mph - N/A   Clear
11:53 PM 68.0 °F - 50.0 °F 52% 29.98 in 10.0 mi NW 8.1 mph - N/A   Clear